Regional Weather Roundup
Issued by NWS

Home | Current Version | Previous Version | Graphics & Text | Print | Product List | Glossary On
Versions: 1 2 3 4 5 6 7 8 9 10 11 12 13 14 15 16 17 18 19 20 21 22 23 24 25 26 27 28 29 30 31 32 33 34 35 36 37 38 39 40 41 42 43 44 45 46 47 48 49 50
000
ASUS45 KTFX 261710
RWRMT
MONTANA REGIONAL WEATHER ROUNDUP
NATIONAL WEATHER SERVICE GREAT FALLS MT
1100 AM MDT THU MAY 26 2016

NOTE: "FAIR" INDICATES FEW OR NO CLOUDS BELOW 12000 FEET WITH NO
SIGNIFICANT WEATHER AND/OR OBSTRUCTIONS TO VISIBILITY.

MTZ001>007-043-261800-
WEST OF THE DIVIDE

CITY           SKY/WX    TMP DP  RH WIND       PRES   REMARKS
KALISPELL      CLOUDY    61  50  67 S13       29.97S
MISSOULA       CLOUDY    58  46  64 SE3       30.02F
BUTTE          CLOUDY    52  37  56 CALM      30.04F
MULLAN PASS    CLOUDY    43  39  86 VRB5      30.07S
ANACONDA         N/A     54  41  62 N6        30.03S
DEER LODGE       N/A     54  45  71 CALM      30.04S
EUREKA           N/A     61  48  63 N6        29.97S
HAMILTON         N/A     63  43  48 CALM      30.02S
LIBBY            N/A     61  48  63 CALM      29.98S
$$

MTZ008-052>055-261800-
SOUTHWEST MONTANA

CITY           SKY/WX    TMP DP  RH WIND       PRES   REMARKS
BOZEMAN        CLOUDY    57  42  57 CALM      30.02S
DILLON         SUNNY     58  35  42 VRB3      30.02F
ENNIS          CLOUDY    55  37  50 N5        30.08S
$$

MTZ009-010-012-014-046-048-049-054-261800-
EAST SLOPES AND CENTRAL MONTANA

CITY           SKY/WX    TMP DP  RH WIND       PRES   REMARKS
CUT BANK       CLOUDY    57  48  72 NE3       29.96S
GREAT FALLS    RAIN      53  50  89 NW6       29.97S FOG
MALMSTROM AFB  PTSUNNY   56  49  77 W13G20    29.97R
HELENA         CLOUDY    60  47  61 E7        29.98F
CHOTEAU          N/A     54  50  87 S5        29.98S
$$

MTZ011-013-016-021-045-047-050-051-261800-
NORTH CENTRAL MONTANA

CITY           SKY/WX    TMP DP  RH WIND       PRES   REMARKS
HAVRE            N/A    N/A N/A N/A MISG      29.93S
LEWISTOWN      CLOUDY    56  43  61 NW12G20   29.95S
N BAR RANCH      N/A     55  43  62 NW16G23   29.96R
CHINOOK          N/A     57  48  72 N6        29.92S
$$

MTZ017>020-022>027-061-062-261800-
NORTHEAST MONTANA

CITY           SKY/WX    TMP DP  RH WIND       PRES   REMARKS
GLASGOW        LGT RAIN  53  51  93 NW10      29.84S FOG
JORDAN           N/A     60  45  57 NW17G24   29.86S
SIDNEY         CLOUDY    58  50  75 S14       29.81F
WOLF POINT     CLOUDY    59  51  75 W14       29.82R
$$

MTZ028>42-056>058-261800-
SOUTHCENTRAL AND SOUTHEAST MONTANA

CITY           SKY/WX    TMP DP  RH WIND       PRES   REMARKS
BAKER          LGT RAIN  55  44  66 W13G23    29.87F
BILLINGS       PTSUNNY   64  39  39 NW17      29.92F
LIVINGSTON     MOSUNNY   59  39  47 SW24G31   29.97F
MILES CITY     PTSUNNY   59  46  62 W12       29.87S
FORSYTH          N/A     57  46  67 W9        29.89S
$$

REGIONAL REPORTS...DAKOTAS

CITY           SKY/WX    TMP DP  RH WIND       PRES   REMARKS
WILLISTON      CLOUDY    55  48  77 VRB5      29.82S
MINOT          LGT RAIN  59  55  87 NE7       29.80R FOG
DICKINSON      MOSUNNY   62  43  49 SW6       29.81F
BEACH          CLOUDY    55  46  71 NW9       29.89R
CROSBY         CLOUDY    55  55 100 SE8G17    29.83R FOG
WATFORD CITY     N/A     61  48  63 W6        29.82S
BISMARCK       SUNNY     69  48  47 W7        29.81F
GRAND FORKS    CLOUDY    66  56  70 W13       29.73R
FARGO          PTSUNNY   66  58  75 SW16      29.78R
BUFFALO SD       N/A     65  43  44 W16G25    29.81S
RAPID CITY     PTSUNNY   65  43  44 N8        29.89F
$$

REGIONAL REPORTS...WYOMING/IDAHO/WASHINGTON

CITY           SKY/WX    TMP DP  RH WIND       PRES   REMARKS
GILLETTE       SUNNY     59  39  47 NW12G20   29.94S
SHERIDAN       CLOUDY    54  45  71 W12G21    29.96F
BUFFALO WY       N/A    N/A N/A N/A MISG      29.98F
CODY           MOSUNNY   57  41  54 N6        29.97F
YELLOWSTONE LA   N/A     43  34  70 VRB5      30.11S
IDAHO FALLS    MOSUNNY   55  44  66 W7        30.05S
SALMON         SUNNY     55  39  54 CALM      30.02F
BOISE          SUNNY     63  42  46 NW8       30.02F
SPOKANE        PTSUNNY   57  43  59 S13       30.04S
$$

REGIONAL REPORTS...ALBERTA

CITY           SKY/WX    TMP DP  RH WIND       PRES   REMARKS
EDMONTON       MOSUNNY   63  52  67 E2        29.88F
CALGARY        PTSUNNY   59  45  58 VRB3      29.92F
LETHBRIDGE     MOSUNNY   61  48  63 S10       29.92F
MEDICINE HAT   MOSUNNY   63  46  55 VRB2      29.92F
WATERTON GATE    N/A     63  45  51 SW14G20     N/A
MILK RIVER       N/A     59  48  67 W7          N/A
$$

REGIONAL REPORTS...SASKATCHEWAN

CITY           SKY/WX    TMP DP  RH WIND       PRES   REMARKS
SWIFT CURRENT  PTSUNNY   55  50  82 NW10      29.90S
REGINA         LGT RAIN  55  52  88 NE10      29.87S
SASKATOON      PTSUNNY   66  48  52 NW2       29.89F
CYPRESS HILLS    N/A     50  45  81 N5          N/A
VAL MARIE        N/A     54  50  87 N16         N/A
ROCKGLEN         N/A     52  50  93 N14G21      N/A
ASSINIBOIA       N/A     59  54  82 W3          N/A
$$



USA.gov is the U.S. government's official web portal to all federal, state and local government web resources and services.